User: anonymous   Login
Location: Caltech
(34.1382°N, 118.1253°W)
Time: 00:21:50
(UTC-07:00)
Language:

Meteor 2-4 Rocket - Orbit

View from above orbital plane
View from above orbital plane
View from above satellite
View from above satellite

Ground track
Ground track

The orbit data is extracted from the following two-line orbital elements,

1 11289U 79021B   16126.77911252 -.00000069  00000-0 -43277-4 0  9994
2 11289  81.2483 201.6047 0074985 310.0944  49.3670 14.11537996913359
Epoch (UTC): 05 May 2016 18:41:55
Eccentricity: 0.0074985
inclination: 81.2483°
perigee height: 800 km
apogee height: 908 km
right ascension of ascending node: 201.6047°
argument of perigee: 310.0944°
revolutions per day: 14.11537996
mean anomaly at epoch: 49.3670°
orbit number at epoch: 91335

The dashed part of the orbit path shows where the satellite is in the earth's shadow,  

DLR